Location: Unspecified
(44.4377°N, 88.0525°W)
Time: 07:12:35
(UTC-05:00)

Cosmos 2058 - Visible Passes

Search period start: 22 September 2014 00:00
Search period end: 02 October 2014 00:00
Orbit: 570 x 594 km, 82.5° (Epoch: 22 September)

Date Brightness Start Highest point End Pass type
(mag) Time Alt. Az. Time Alt. Az. Time Alt. Az.
22 Sep 4.8 19:19:01 10° NE 19:21:05 13° ENE 19:23:09 10° E visible
22 Sep 3.5 20:54:28 10° NNW 20:58:34 56° W 21:00:10 33° SSW visible
23 Sep 4.4 19:24:03 10° NNE 19:26:58 18° ENE 19:29:53 10° ESE visible
23 Sep 4.2 21:00:20 10° NNW 21:04:14 39° W 21:06:29 22° SSW visible
24 Sep 4.0 19:29:22 10° NNE 19:32:49 24° ENE 19:36:16 10° SE visible
24 Sep 4.8 21:06:17 10° NNW 21:09:53 28° W 21:12:55 13° SW visible
25 Sep 3.6 19:34:49 10° N 19:38:38 33° ENE 19:42:27 10° SE visible
25 Sep 5.4 21:12:23 10° NW 21:15:30 21° W 21:18:39 10° SW visible
26 Sep 3.2 19:40:22 10° N 19:44:25 46° ENE 19:48:28 10° SSE visible
26 Sep 5.9 21:18:41 10° NW 21:21:06 15° W 21:23:31 10° WSW visible
27 Sep 2.9 19:45:59 10° N 19:50:10 66° E 19:54:21 10° SSE visible
27 Sep 6.2 21:25:38 10° WNW 21:26:40 11° W 21:27:41 10° W visible
28 Sep 2.9 19:51:41 10° N 19:55:54 87° W 20:00:07 10° S visible
29 Sep 3.5 19:57:26 10° NNW 20:01:36 61° W 20:05:45 10° S visible
30 Sep 4.2 20:03:16 10° NNW 20:07:15 43° W 20:11:15 10° SSW visible
01 Oct 4.9 20:09:11 10° NNW 20:12:54 31° W 20:16:36 10° SSW visible
